Regional Weather Roundup
Issued by NWS Newport/Morehead, NC

Current Version | Previous Version | Graphics & Text | Print | Product List | Glossary On
Versions: 1 2 3 4 5 6 7 8 9 10 11 12 13 14 15 16 17 18 19 20 21 22 23 24 25 26 27 28 29 30 31 32 33 34 35 36 37 38 39 40 41 42 43 44 45 46 47 48 49 50
000 ASUS42 KMHX 050525 RWRMHX WEATHER ROUNDUP FOR EASTERN NORTH CAROLINA NATIONAL WEATHER SERVICE NEWPORT/MOREHEAD CITY NC 100 AM EDT THU MAY 05 2016 NOTE: "FAIR" INDICATES FEW OR NO CLOUDS BELOW 12,000 FEET WITH NO SIGNIFICANT WEATHER AND/OR OBSTRUCTIONS TO VISIBILITY NCZ015>017-031-032-045>047-102-103-050600- NORTH COAST CITY SKY/WX TMP DP RH WIND PRES REMARKS EDENTON CLOUDY 59 59 100 E7 29.63F ELIZABETH CITY CLOUDY 56 54 93 NE9 29.64S KITTY HAWK CLOUDY 55 55 97 N7 29.61F MANTEO CLOUDY 56 56 97 NE14 29.62F $$ NCZ045>047-081-094-103-104-050600- CENTRAL COAST CITY SKY/WX TMP DP RH WIND PRES REMARKS FRISCO CLOUDY 59 57 93 NE13G20 29.61S SWANQUARTER NOT AVBL $$ NCZ095-097-098-100-101-050600- SOUTHERN COAST CITY SKY/WX TMP DP RH WIND PRES REMARKS BEAUFORT CLOUDY 65 63 93 NE10 29.59S CEDAR ISLAND NOT AVBL JACKSONVILLE MOCLDY 64 59 83 NE7 29.58S PINEY ISLAND CLOUDY N/A N/A N/A NE10 29.60S WILMINGTON MOCLDY 63 59 87 NW6 29.58F $$ NCZ011>013-027>030-043-044-078>080-089-090>093-098-050600- COASTAL PLAIN CITY SKY/WX TMP DP RH WIND PRES REMARKS AHOSKIE CLOUDY 57 56 95 NE3 29.63S CLINTON CLOUDY 63 59 87 CALM 29.60S ELIZABETHTOWN CLOUDY 64 56 73 CALM 29.60S GOLDSBORO CLOUDY 62 62 100 CALM 29.57F GREENVILLE CLOUDY 63 61 94 E10 29.63F HAVELOCK CLOUDY 65 63 93 NE10 29.60F KENANSVILLE PTCLDY 57 56 96 CALM 29.59F KINSTON CLEAR 58 57 97 CALM 29.59F NEW BERN CLOUDY 64 62 93 E7 29.60F RICHLANDS PTCLDY 59 57 93 CALM 29.58F ROCKY MOUNT CLOUDY 60 59 96 CALM 29.59F WASHINGTON CLOUDY 59 58 96 E10 29.60F FOG WHITEVILLE NOT AVBL $$ AMZ130-135-150-152-154-156-158-170-250-252-270-ANZ085-086-088-633-658-670-050600- MARINE OBSERVATIONS STATION/POSITION TIME TEMP WIND PRES WAVE SWELL AIR SEA DIR/SP/G HT/PER HT/PER (UTC) (F) (DEG/KT/KT) (MB) (FT/S) (FT/S) CHESAPEAKE LIGHT 0500 51 40/ 15/ 16 1004.7 64 E VA BEACH 0450 52 54 20/ 14/ 16 1002.4 4/ 7 2/ 7 DUCK 0500 54 60 360/ 11/ 14 1002.9 2 E DUCK 0411 59 N/A 3/ 4 OREGON INLET 0500 56 65 20/ 13/ 14 1002.6 13E OREGON INLT 0500 59 N/A 4/ 7 3/ 7 HATTERAS CG 0500 61 70 20/ 15/ 21 1002.2 DIAMOND BUOY 0450 62 70 20/ 17/ 21 1002.3 4/ 8 2/ 8 CAPE LOOKOUT 0500 64 40/ 19/ 21 1001.6 BEAUFORT LAB 0500 65 68 40/ 8/ 11 1001.0 30 SE NEW RVR IN 0425 72 N/A 4/ 7 27 SE WRIGHTSVLE 0508 72 72 350/ 6/ 10 1001.1 5 SE WRIGHTSVLE 0508 69 69 360/ 6/ 8 1002.3 225 S CAPE HAT 0450 73 73 200/ 17/ 21 1004.2 6/ 7 2/ 9 41 SE CHARLESTON 0450 72 74 320/ 19/ 23 1002.4 3/ 4 2/ 7 $$

USA.gov is the U.S. government's official web portal to all federal, state and local government web resources and services.